Content
SEND FEEDBACK

Daily
Averages
Monthly
Summary
United States of America

ACHANG BAY, GUAM


Home > North America > United States > Guam
Elevation: 30 feet     Latitude: 13 16N     Longitude: 144 45E

WEATHER
 
SELECT A DAY
Number of Records: 354,252;   Date Range: 1/1/95 - 11/21/14
 
SHARE

PRINT THIS DATA

[ ← Previous Day ]
WEATHER ALMANAC - JUNE 6, 2014
[ Next Day → ]
[ °C ]   °F
Weather ElementAverageHighLow
Temperature81.8 °F85.3 °F (1:58 pm)78.1 °F (5:58 am)
Dewpoint74.6 °F76.1 °F (4:58 pm)73 °F (9:58 pm)
Humidity79.1 %89 % (3:13 am)71 % (1:58 pm)
Barometer29.74 in29.78 in (8:48 am)29.70 in (1:58 pm)
Wind Speed8 mph10.4 mph (8:48 am)
Weather ElementAverage
Visibility10 mi
Wind DirectionE (92.6 °)

Weather ElementTotal
Precipitation---
Cooling Degree Days16.7 (Base 65)
Growing Degree Days31.7 (Base 50)
Averaged from 19 records on June 6, 2014
WEATHER CONDITIONS BREAKOUT
WIND DIRECTION BREAKOUT
WEATHER BY HOUR - JUNE 6, 2014
[ °C ]   °F
Local TimeTemperatureDewpointHumidityBarometerVisibilityWind DirectionWind SpeedGust SpeedPrecipitationEventsConditions
2:58 AM79.0 °F74.5 °F86 %29.74 in10.0 miEast (80°)8.1 mphScattered Clouds
3:13 AM78.8 °F75.2 °F89 %29.77 in10.0 miEast (80°)8.1 mphMostly Cloudy
3:23 AM78.8 °F75.2 °F89 %29.77 in10.0 miEast (80°)9.2 mphScattered Clouds
3:58 AM78.4 °F73.4 °F84 %29.74 in10.0 miEast (90°)6.9 mphClear
5:58 AM78.1 °F73.9 °F87 %29.74 in10.0 miENE (70°)5.8 mphClear
7:58 AM82.6 °F75.0 °F78 %29.75 in10.0 miEast (100°)8.1 mphClear
8:48 AM84.2 °F75.2 °F74 %29.78 in10.0 miEast (100°)10.4 mphScattered Clouds
9:58 AM84.7 °F75.2 °F73 %29.75 in10.0 miEast (100°)6.9 mphPartly Cloudy
10:58 AM83.8 °F75.4 °F76 %29.75 in10.0 miSE (140°)8.1 mphScattered Clouds
11:58 AM84.4 °F75.2 °F74 %29.73 in10.0 miESE (110°)8.1 mphScattered Clouds
12:58 PM85.1 °F75.4 °F73 %29.72 in10.0 miVariable6.9 mphPartly Cloudy
1:58 PM85.3 °F75.0 °F71 %29.70 in10.0 miSE (130°)9.2 mphPartly Cloudy
2:58 PM85.1 °F75.0 °F72 %29.70 in10.0 miESE (120°)10.4 mphMostly Cloudy
4:58 PM83.5 °F76.1 °F78 %29.70 in10.0 miESE (120°)10.4 mphScattered Clouds
5:58 PM82.0 °F74.7 °F78 %29.71 in10.0 miEast (90°)8.1 mphPartly Cloudy
6:58 PM80.8 °F73.4 °F78 %29.73 in10.0 miEast (90°)6.9 mphClear
7:58 PM80.2 °F73.4 °F80 %29.74 in10.0 miEast (90°)8.1 mphClear
9:58 PM79.5 °F73.0 °F80 %29.77 in10.0 miEast (90°)6.9 mphClear
10:58 PM79.3 °F73.9 °F83 %29.78 in10.0 miEast (80°)4.6 mphPartly Cloudy
Hourly data recorded from PGUA, located miles away from Achang Bay, Guam







STORIES FROM OUR PARTNERS